sat.trackr.live / text

‹ back to catalog

STARLINK-32467

NORAD 61713 · 2024-196G

PAYLOAD ACTIVE UNKNOWN

§ Identity

Operator
Country
US
Launch date
2024-10-30
Launch site
AFETR
Launch vehicle
Mass (kg)
RCS (m²)

Purposes: comms

External: N2YO · Heavens-Above · Gunter

§ Orbital elements

Epoch: 2026-09-20T07:07:35.808672Z

Period
93.85 min
Inclination
53.1608°
Eccentricity
0.0001879
Mean motion
15.34381034 rev/d
Perigee alt
461.5 km
Apogee alt
464.0 km
Semi-major
6,840.9 km
B*
-3.2026e-5
RAAN
274.4500°
Arg perigee
97.5218°
Mean anomaly
262.5998°
Rev number
10,699

§ Raw data

STARLINK-324671 61713U 24196G   26263.29694223 -.00001458  00000+0 -32026-4 0  99922 61713  53.1608 274.4500 0001879  97.5218 262.5998 15.34381034106990

JSON: /api/v1/satellites/61713 · /tle

For live sub-satellite position, see the globe view (requires WebGL).

§ Visibility from observer

Set your observer location to see the next 7 days of passes ≥ 10°. The values pass through the URL so the page stays shareable.

No JS? Fill the form by hand. The geolocation button needs JavaScript.